Regional Weather Roundup
Issued by NWS

Home | Current Version | Previous Version | Text Only | Print | Product List | Glossary On
Versions: 1 2 3 4 5 6 7 8 9 10 11 12 13 14 15 16 17 18 19 20 21 22 23 24 25 26 27 28 29 30 31 32 33 34 35 36 37 38 39 40 41 42 43 44 45 46 47 48 49 50
000
ASUS44 KOUN 292310
RWROK

WEATHER ROUNDUP FOR OKLAHOMA
NATIONAL WEATHER SERVICE NORMAN OK
600 PM CDT SAT AUG 29 2015

NOTE: "FAIR" INDICATES FEW OR NO CLOUDS BELOW 12,000 FEET WITH NO
      SIGNIFICANT WEATHER AND/OR OBSTRUCTIONS TO VISIBILITY.

OKZ001>007-009>012-014-015-017-300000-
NORTHWEST OKLAHOMA AND THE PANHANDLE

CITY           SKY/WX    TMP DP  RH WIND       PRES   REMARKS
GAGE           SUNNY     87  53  31 NE12      30.03F
GUYMON         SUNNY     88  46  23 E6        30.09S
ENID/WOODRING  MOSUNNY   86  64  48 N12       29.97S
$$

OKZ016-021>023-033>039-044-045-300000-
SOUTHWEST OKLAHOMA

CITY           SKY/WX    TMP DP  RH WIND       PRES   REMARKS
LAWTON/REGL    CLOUDY    92  66  42 NE7       29.93F HX  94
LAWTON/FT SILL CLOUDY    91  69  49 NE6       29.92F HX  96
FREDERICK      CLOUDY    92  66  42 CALM      29.92F HX  94
CLINTON        SUNNY     90  56  31 NW8       30.02S
HOBART         MOSUNNY   93  58  30 VRB6      29.97F HX  92
ALTUS AFB      PTSUNNY   93  58  30 N5        29.95F HX  92
$$

OKZ018>020-024>031-300000-
CENTRAL OKLAHOMA

CITY           SKY/WX    TMP DP  RH WIND       PRES   REMARKS
OKLAHOMA CITY  MOSUNNY   90  63  40 N7        29.96S HX  91
OKC/WILEY POST SUNNY     89  61  38 NE5       29.96F
OKC/TINKER AFB SUNNY     90  66  45 N7        29.95F HX  92
STILLWATER     PTSUNNY   85  65  51 N12       29.96F
GUTHRIE        SUNNY     88  60  38 NW5       29.96F
$$

OKZ008-013-054>072-300000-
NORTHEAST OKLAHOMA

CITY           SKY/WX    TMP DP  RH WIND       PRES   REMARKS
TULSA          MOSUNNY   85  70  60 N5        29.94F
TULSA/JONES    PTSUNNY   85  70  60 N5        29.94F
PONCA CITY     CLOUDY    80  65  59 N8        29.98S
BARTLESVILLE   MOSUNNY   81  68  64 N6        29.98S
MUSKOGEE       PTSUNNY   86  74  67 CALM      29.94S HX  94
$$

OKZ032-040>043-046>053-073>077-300000-
SOUTH CENTRAL/SOUTHEAST OKLAHOMA

CITY           SKY/WX    TMP DP  RH WIND       PRES   REMARKS
ARDMORE/DWNTWN PTSUNNY   91  61  35 S7        29.90S HX  91
MCALESTER      PTSUNNY   88  71  57 CALM      29.94F HX  94
$$




USA.gov is the U.S. government's official web portal to all federal, state and local government web resources and services.